Indianapolis, IN

5:13 AM EST on November 15, 2019 (GMT -0500)
Indianapolis International

Weather History for KIND - September, 2019

Change the Weather History Date:

Thursday, September 26, 2019

  Actual Average Record
Temperature  
Mean Temperature 66 °F 62 °F  
Max Temperature 75 °F 73 °F 91 °F (1891)
Min Temperature 57 °F 52 °F 37 °F (2001)
Degree Days  
Heating Degree Days 0 5  
Month to date heating degree days 0 48  
Since 1 July heating degree days 0 52  
Cooling Degree Days 1 2  
Month to date cooling degree days 219 121  
Year to date cooling degree days 1258 1042  
Growing Degree Days 16 (Base 50)    
Moisture  
Dew Point 48 °F    
Average Humidity 57    
Maximum Humidity 87    
Minimum Humidity 27    
Precipitation  
Precipitation 0.00 in 0.10 in 1.62 in (1933)
Month to date precipitation 0.40 2.69  
Year to date precipitation 36.95 32.02  
Snow  
Snow 0.00 in 0.00 in T in (1951)
Month to date snowfall 0.0 0.0  
Since 1 July snowfall 0.0 0.0  
Since 1 September snowfall 0.0 0.0  
Snow Depth 0.00 in    
Sea Level Pressure  
Sea Level Pressure 29.94 in    
Wind  
Wind Speed 7 mph (NW)    
Max Wind Speed 16 mph    
Max Gust Speed 20 mph    
Visibility 10 miles    
Events      
T = Trace of Precipitation, MM = Missing Value Source: NWS Daily Summary

Daily Weather History Graph

Daily Weather History Graph

Search for Another Location

Airport or City:

Astronomy

Sep. 26, 2019 Rise Set
Actual Time 7:36 AM EDT 7:36 PM EDT
Civil Twilight 7:09 AM EDT 8:02 PM EDT
Nautical Twilight 6:38 AM EDT 8:34 PM EDT
Astronomical Twilight 6:06 AM EDT 9:05 PM EDT
Moon 4:43 AM EDT (9/26) 6:48 PM EDT (9/26)
Length of Visible Light 12h 53m
Length of Day
11h 59m
Waning Crescent, 7% of the Moon is Illuminated
Sep 26
Waning Crescent
Sep 28
New
Oct 5
First Quarter
Oct 13
Full
Oct 21
Last Quarter

Hourly Weather History & Observations

Time (EDT) Temp. Dew Point Humidity Pressure Visibility Wind Dir Wind Speed Gust Speed Precip Events Conditions
12:54 AM 71.1 °F 64.9 °F 81% 29.83 in 10.0 mi West 10.4 mph - N/A   Mostly Cloudy
1:54 AM 68.0 °F 63.0 °F 84% 29.83 in 10.0 mi NW 11.5 mph - N/A   Mostly Cloudy
2:54 AM 64.9 °F 60.1 °F 84% 29.84 in 10.0 mi NNW 8.1 mph - N/A   Scattered Clouds
3:54 AM 63.0 °F 55.9 °F 78% 29.85 in 10.0 mi NNW 5.8 mph - N/A   Scattered Clouds
4:54 AM 64.0 °F 55.9 °F 75% 29.85 in 10.0 mi NNW 4.6 mph - N/A   Mostly Cloudy
5:54 AM 61.0 °F 54.0 °F 78% 29.87 in 10.0 mi NW 6.9 mph - N/A   Mostly Cloudy
6:54 AM 60.1 °F 53.1 °F 78% 29.91 in 10.0 mi NW 9.2 mph - N/A   Scattered Clouds
7:54 AM 57.9 °F 53.1 °F 84% 29.93 in 10.0 mi WNW 5.8 mph - N/A   Mostly Cloudy
8:54 AM 61.0 °F 54.0 °F 78% 29.95 in 10.0 mi NW 10.4 mph - N/A   Mostly Cloudy
9:54 AM 64.9 °F 53.1 °F 65% 29.98 in 10.0 mi NNW 13.8 mph - N/A   Mostly Cloudy
10:54 AM 66.9 °F 52.0 °F 59% 29.99 in 10.0 mi NNW 10.4 mph - N/A   Mostly Cloudy
11:54 AM 69.1 °F 51.1 °F 53% 30.00 in 10.0 mi North 8.1 mph - N/A   Mostly Cloudy
12:54 PM 72.0 °F 44.1 °F 37% 29.99 in 10.0 mi West 8.1 mph - N/A   Scattered Clouds
1:54 PM 73.0 °F 39.9 °F 30% 29.98 in 10.0 mi Variable 5.8 mph - N/A   Scattered Clouds
2:54 PM 75.0 °F 39.9 °F 28% 29.97 in 10.0 mi NW 13.8 mph 18.4 mph N/A   Partly Cloudy
3:54 PM 73.9 °F 39.9 °F 29% 29.96 in 10.0 mi North 5.8 mph 19.6 mph N/A   Partly Cloudy
4:54 PM 73.9 °F 37.9 °F 27% 29.96 in 10.0 mi WNW 11.5 mph - N/A   Partly Cloudy
5:54 PM 73.9 °F 39.0 °F 28% 29.96 in 10.0 mi Variable 5.8 mph - N/A   Partly Cloudy
6:54 PM 71.1 °F 39.0 °F 31% 29.97 in 10.0 mi NNW 5.8 mph - N/A   Partly Cloudy
7:54 PM 66.9 °F 39.9 °F 37% 29.97 in 10.0 mi NNW 4.6 mph - N/A   Partly Cloudy
8:54 PM 64.9 °F 41.0 °F 42% 29.97 in 10.0 mi North 6.9 mph - N/A   Clear
9:54 PM 64.0 °F 42.1 °F 45% 29.97 in 10.0 mi NE 3.5 mph - N/A   Clear
10:54 PM 60.1 °F 44.1 °F 55% 29.99 in 10.0 mi Calm Calm - N/A   Clear
11:54 PM 57.9 °F 45.0 °F 62% 29.99 in 9.0 mi Calm Calm - N/A   Clear